Regional Weather Roundup
Issued by NWS

Home | Current Version | Previous Version | Graphics & Text | Print | Product List | Glossary On
Versions: 1 2 3 4 5 6 7 8 9 10 11 12 13 14 15 16 17 18 19 20 21 22 23 24 25 26 27 28 29 30 31 32 33 34 35 36 37 38 39 40 41 42 43 44 45 46 47 48 49 50
000
ASUS43 KLSX 101310
RWRMO

WEATHER SUMMARY FOR MISSOURI
NATIONAL WEATHER SERVICE SPRINGFIELD MO
700 AM CST SAT DEC 10 2016

NOTE: "FAIR" INDICATES FEW OR NO CLOUDS BELOW 12,000 FEET WITH NO
       SIGNIFICANT WEATHER AND/OR OBSTRUCTIONS TO VISIBILITY.
       CURRENT SKY AND/OR WEATHER CONDITIONS ARE NOT AVAILABLE FOR
       CHILLICOTHE AND FARMINGTON.

MOZ001>031-035>038-043-044-053-054-101400-
...NORTHERN AND WESTERN MISSOURI...

CITY           SKY/WX    TMP DP  RH WIND       PRES   REMARKS
KANSAS CTY INT CLOUDY    26  13  57 SE9       30.43F WCI  17
KANSAS C DTWN  CLOUDY    28  15  58 E5        30.45F WCI  23
LEE`S SUMMIT   CLOUDY    26  16  65 SE7       30.44F WCI  18
ST JOSEPH      CLOUDY    26  14  60 SE6       30.45F WCI  19
CHILLICOTHE      N/A     25  13  60 SE6       30.49F WCI  18
KIRKSVILLE     CLOUDY    24  14  65 SE7       30.50F WCI  16

$$
MOZ066>068-077>081-088>096-101>105-101400-
...SOUTHWEST MISSOURI...

CITY           SKY/WX    TMP DP  RH WIND       PRES   REMARKS
SPRINGFIELD    CLOUDY    29  16  58 SE9       30.44F WCI  20
JOPLIN         CLOUDY    33  18  53 S8        30.43F WCI  26
BRANSON        CLOUDY    28  18  64 SE6       30.47F WCI  22

$$
MOZ032>034-039>042-045>050-055>058-069>072-101400-
...CENTRAL MISSOURI...

CITY           SKY/WX    TMP DP  RH WIND       PRES   REMARKS
COLUMBIA       CLOUDY    25  13  60 SE7       30.51S WCI  17
JEFFERSON CITY CLOUDY    26  13  57 E6        30.53F WCI  19
ROLLA          CLOUDY    23  13  65 SE7       30.48S WCI  15
SEDALIA        CLOUDY    27  14  58 E6        30.49S WCI  20
WHITEMAN AFB   CLOUDY    26  16  64 SE3       30.47S
WARRENSBURG    CLOUDY    28  18  64 E5        30.47F WCI  23
OSAGE BEACH    CLOUDY    26  15  63 SE5       30.50F WCI  20

$$
MOZ051-052-059>065-101400-
...EAST CENTRAL MISSOURI...

CITY           SKY/WX    TMP DP  RH WIND       PRES   REMARKS
ST LOUIS INTL  CLOUDY    27  13  55 SE3       30.56F
SPIRIT OF STL  CLOUDY    25  17  72 CALM      30.56F
ST CHARLES     CLOUDY    26  19  74 E5        30.56F WCI  20

$$
MOZ072>076-082>087-097>100-106>115-101400-
...SOUTH CENTRAL AND SOUTHEAST MISSOURI...

CITY           SKY/WX    TMP DP  RH WIND       PRES   REMARKS
CAPE GIRARDEAU CLEAR     17  14  88 E3        30.60S
FARMINGTON     CLOUDY    13  10  88 CALM      30.55S
POPLAR BLUFF   CLOUDY    18  15  88 CALM      30.61R
WEST PLAINS    CLOUDY    19  14  81 SE5       30.51F WCI  12

$$



USA.gov is the U.S. government's official web portal to all federal, state and local government web resources and services.